Location: Deuil
(48.9767°N, 2.3272°E)
Time: 11:18:07
(UTC+00:00)

FENGYUN 1C DEB - Visible Passes

Search period start: 17 August 2022 00:00
Search period end: 27 August 2022 00:00
Orbit: 816 x 900 km, 99.3° (Epoch: 16 August)

Date Brightness Start Highest point End Pass type
(mag) Time Alt. Az. Time Alt. Az. Time Alt. Az.
17 Aug ? 21:36:30 10° NE 21:41:33 31° E 21:41:51 30° E visible
17 Aug ? 23:17:00 10° N 23:22:32 50° WNW 23:24:01 41° WSW visible
18 Aug ? 01:00:25 10° NNW 01:02:05 11° NW 01:03:44 10° WNW visible
18 Aug ? 21:27:05 10° NE 21:31:51 26° E 21:32:00 26° E visible
18 Aug ? 23:07:19 10° N 23:12:59 59° WNW 23:14:09 49° WSW visible
19 Aug ? 00:50:07 10° NNW 00:52:39 13° NW 00:55:11 10° WNW visible
19 Aug ? 21:17:44 10° NE 21:22:07 22° E 21:22:08 22° E visible
19 Aug ? 22:57:40 10° NNE 23:03:24 69° WNW 23:04:17 60° WSW visible
20 Aug ? 00:40:04 10° NNW 00:43:13 15° NW 00:46:22 10° W visible
20 Aug ? 21:08:27 10° NE 21:12:17 18° E 21:12:17 18° E visible
20 Aug ? 22:48:01 10° NNE 22:53:48 81° WNW 22:54:25 71° SW visible
21 Aug ? 00:30:07 10° NNW 00:33:45 18° NW 00:36:35 13° W visible
21 Aug ? 20:59:18 10° NE 21:02:25 15° E 21:02:25 15° E visible
21 Aug ? 22:38:23 10° NNE 22:44:12 86° ESE 22:44:34 79° S visible
22 Aug ? 00:20:14 10° N 00:24:17 20° NW 00:26:43 16° W visible
22 Aug ? 20:50:22 10° ENE 20:52:32 13° E 20:52:32 13° E visible
22 Aug ? 22:28:47 10° NNE 22:34:34 74° ESE 22:34:41 74° ESE visible
23 Aug ? 00:10:24 10° N 00:14:48 23° NW 00:16:51 19° W visible
23 Aug ? 20:42:21 10° ENE 20:42:40 10° E 20:42:40 10° E visible
23 Aug ? 22:19:11 10° NNE 22:24:49 63° E 22:24:49 63° E visible
24 Aug ? 00:00:36 10° N 00:05:18 27° WNW 00:06:58 23° W visible
24 Aug ? 22:09:37 10° NNE 22:14:56 52° E 22:14:56 52° E visible
24 Aug ? 23:50:49 10° N 23:55:47 31° WNW 23:57:05 28° W visible
25 Aug ? 22:00:04 10° NNE 22:05:03 43° E 22:05:03 43° E visible
25 Aug ? 23:41:04 10° N 23:46:15 36° WNW 23:47:12 33° W visible
26 Aug ? 21:50:33 10° NNE 21:55:10 36° E 21:55:10 36° E visible
26 Aug ? 23:31:19 10° N 23:36:42 41° WNW 23:37:19 40° W visible
